Regional Weather Roundup
Issued by NWS

Home | Current Version | Previous Version | Text Only | Print | Product List | Glossary On
Versions: 1 2 3 4 5 6 7 8 9 10 11 12 13 14 15 16 17 18 19 20 21 22 23 24 25 26 27 28 29 30 31 32 33 34 35 36 37 38 39 40 41 42 43 44 45 46 47 48 49 50
000
ASCA42 TJSJ 051610
RWRPR
PUERTO RICO/U.S. VIRGIN ISLANDS HOURLY WEATHER ROUNDUP
NATIONAL WEATHER SERVICE SAN JUAN PR
1200 PM AST THU MAY 05 2016

PRZ001-004-051700-
PUERTO RICO

CITY           SKY/WX    TMP DP  RH WIND       PRES   REMARKS
SAN JUAN LMM   MOSUNNY   88  70  55 SE13G21   29.96F HX  92
MAYAGUEZ       MOSUNNY   91  72  52 S10       29.96S HX  98
AGUADILLA      PTSUNNY   82  73  74 NE8       29.97F
CEIBA          MOSUNNY   86  75  70 SE13G21   30.00F HX  95
$$

PRZ006-007-051700-
U.S. VIRGIN ISLANDS

CITY           SKY/WX    TMP DP  RH WIND       PRES   REMARKS
CHARLOTTE AMA  SUNNY     86  75  70 SE15G22   29.98F HX  95
CHRISTIANSTED  SUNNY     86  73  66 E15       29.99F HX  93
$$

HOURLY WEATHER ROUNDUP FOR THE NEWS MEDIA

CITY           SKY/WX    TMP DP  RH WIND       PRES   REMARKS
ORLANDO        MOSUNNY   79  51  37 NW15G25   29.80F
NEW YORK       CLOUDY    53  42  66 NE16      29.71S
NEWARK         CLOUDY    52  43  71 N14       29.70F
CHICAGO        SUNNY     54  40  59 NE15      30.01R
HARTFORD       CLOUDY    46  43  89 NE22G32   29.71S
BOSTON         CLOUDY    46  42  86 NE20G25   29.78F
DALLAS         MOSUNNY   76  41  28 N5        30.10S
PHILADELPHIA   CLOUDY    55  44  66 NE12      29.68F
LOS ANGELES    PTSUNNY   61  52  72 S5        29.92S
WASHINGTON DC  CLOUDY    53  46  77 NE12      29.68S


USA.gov is the U.S. government's official web portal to all federal, state and local government web resources and services.